Location: Unspecified
(52.4292°N, 19.3359°E)
Time: 00:33:27
(UTC+02:00)

Altair - Pass Details

Date: 21 May 2024
Orbit: 1502 x 1682 km, 47.2° (Epoch: 19 June)

Event Time Altitude Azimuth Distance (km) Brightness Sun altitude
Rises 14:43:35 0° 270° (W) 4,899 10.6 49.9°
Reaches altitude 10° 14:46:45 10° 268° (W) 3,925 10.3 49.6°
Maximum altitude 14:56:41 64° 190° (S) 1,831 9.3 48.4°
Drops below altitude 10° 15:06:37 10° 112° (ESE) 3,926 9.5 47.2°
Sets 15:09:47 0° 110° (ESE) 4,900 9.9 46.8°
